SA3PJN-WX Weather Reports


time (UTC)temp
C
wind
direction
speed
KPH
gust
KPH
rain 1hr
cm
rain 24hr
cm
rain mn
cm
humidity
%
barometer
mb
20260905230421 10 275 4.8 16.1 0.00 0.00 0.00 99 962.8
20260905225921 10 103 4.8 14.5 0.00 0.00 0.00 99 962.7
20260905225421 10 165 4.8 14.5 0.00 0.00 0.00 99 962.6
20260905224921 10 128 4.8 14.5 0.00 0.00 0.00 99 962.6
20260905224421 10 144 4.8 17.7 0.00 0.00 0.00 99 962.5
20260905223921 10 4 6.4 19.3 0.00 0.00 0.00 98 962.5
20260905223421 10 227 6.4 19.3 0.00 0.00 0.00 98 962.4
20260905222921 10 159 8.0 19.3 0.00 0.00 0.00 98 962.4
20260905222421 10 221 8.0 19.3 0.00 0.00 0.00 98 962.2
20260905221921 10 99 6.4 17.7 0.00 0.00 0.00 98 962.2
20260905221421 10 189 6.4 19.3 0.00 0.00 0.00 98 962.2
20260905220921 10 233 8.0 19.3 0.00 0.00 0.00 98 962.0
20260905220420 10 237 8.0 19.3 0.00 0.00 0.00 98 962.0
20260905215920 10 223 6.4 22.5 0.00 0.00 0.00 99 961.8
20260905215420 10 202 6.4 22.5 0.00 0.00 0.00 99 961.8
20260905214920 10 258 6.4 16.1 0.00 0.00 0.00 10 961.8
20260905214420 11 222 6.4 16.1 0.00 0.00 0.00 99 961.8
20260905213920 11 201 4.8 16.1 0.00 0.00 0.00 99 961.7
20260905213420 11 326 3.2 16.1 0.00 0.00 0.00 99 961.6
20260905212850 10 74 3.2 9.7 0.00 0.00 0.00 99 961.5
20260905212350 10 78 3.2 9.7 0.00 0.00 0.00 99 961.4
20260905211850 10 228 3.2 12.9 0.00 0.00 0.00 98 961.4
20260905211350 10 90 3.2 12.9 0.00 0.00 0.00 99 961.4
20260905210850 10 127 3.2 11.3 0.00 0.00 0.00 99 961.3
20260905210350 10 70 3.2 11.3 0.00 0.00 0.00 98 961.2
20260905205850 10 107 3.2 8.0 0.00 0.00 0.00 98 961.0
20260905205350 10 90 3.2 14.5 0.00 0.00 0.00 98 960.9
20260905204849 10 32 4.8 14.5 0.00 0.00 0.00 98 960.9
20260905204349 10 94 4.8 12.9 0.00 0.00 0.00 98 961.0
20260905203849 10 112 4.8 11.3 0.00 0.00 0.00 98 961.0
20260905203349 11 233 3.2 11.3 0.00 0.00 0.00 98 960.9
20260905202849 11 123 3.2 11.3 0.00 0.00 0.00 98 960.9
20260905202349 11 83 3.2 14.5 0.00 0.00 0.00 98 960.9
20260905201849 11 311 3.2 14.5 0.00 0.00 0.00 98 960.7
20260905201349 11 251 3.2 14.5 0.00 0.00 0.00 98 960.7
20260905200849 11 273 3.2 9.7 0.00 0.00 0.00 98 960.7
20260905200349 11 182 4.8 11.3 0.00 0.00 0.00 98 960.7
20260905195849 11 236 6.4 11.3 0.00 0.00 0.00 98 960.6
20260905195349 11 237 6.4 12.9 0.00 0.00 0.00 97 960.5
20260905194849 11 236 8.0 12.9 0.00 0.00 0.00 96 960.5
20260905194349 11 229 8.0 12.9 0.00 0.00 0.00 94 960.4
20260905193849 11 233 8.0 12.9 0.00 0.00 0.00 91 960.4
20260905193348 11 236 8.0 12.9 0.00 0.00 0.00 90 960.3
20260905192848 11 206 6.4 12.9 0.00 0.00 0.00 91 960.4
20260905192348 11 234 6.4 12.9 0.00 0.00 0.00 93 960.4
20260905191848 11 231 8.0 12.9 0.00 0.00 0.00 91 960.3
20260905191348 11 236 8.0 9.7 0.00 0.00 0.00 90 960.3
20260905190848 11 236 6.4 9.7 0.00 0.00 0.00 89 960.1
20260905190348 11 237 6.4 9.7 0.00 0.00 0.00 88 960.1
20260905185848 11 234 6.4 9.7 0.00 0.00 0.00 89 960.1
20260905185348 11 238 6.4 9.7 0.00 0.00 0.00 91 959.9
20260905184848 11 236 6.4 8.0 0.00 0.00 0.00 92 960.0
20260905184348 11 240 4.8 8.0 0.00 0.00 0.00 91 960.0
20260905183848 11 240 4.8 6.4 0.00 0.00 0.00 91 959.8
20260905183348 11 236 4.8 6.4 0.00 0.00 0.00 89 959.8
20260905182848 11 235 4.8 6.4 0.00 0.00 0.00 89 959.8
20260905182348 11 238 4.8 8.0 0.00 0.00 0.00 89 959.6
20260905181848 11 240 4.8 8.0 0.00 0.00 0.00 89 959.6
20260905181348 11 246 4.8 6.4 0.00 0.00 0.00 89 959.7
20260905180847 11 231 4.8 6.4 0.00 0.00 0.00 91 959.5
20260905180347 11 234 3.2 6.4 0.00 0.00 0.00 92 959.5
20260905175847 11 238 4.8 6.4 0.00 0.00 0.00 92 959.4
20260905175347 11 234 4.8 6.4 0.00 0.00 0.00 91 959.4
20260905174847 11 236 4.8 6.4 0.00 0.00 0.00 90 959.3
20260905174347 11 239 3.2 6.4 0.00 0.00 0.00 89 959.3
20260905173847 12 236 3.2 4.8 0.00 0.00 0.00 88 959.2
20260905173347 12 249 3.2 4.8 0.00 0.00 0.00 86 959.1
20260905172847 12 249 3.2 4.8 0.00 0.00 0.00 85 959.0
20260905172347 12 250 3.2 4.8 0.00 0.00 0.00 85 959.1
20260905171847 12 246 3.2 3.2 0.00 0.00 0.00 86 959.0
20260905171347 12 241 3.2 4.8 0.00 0.00 0.00 85 958.9
20260905170847 12 239 3.2 6.4 0.00 0.00 0.00 84 958.8
20260905170347 12 250 3.2 6.4 0.00 0.00 0.00 83 958.8
20260905165847 12 247 3.2 6.4 0.00 0.00 0.00 82 958.7
20260905165347 12 250 3.2 6.4 0.00 0.00 0.00 84 958.6
20260905164847 13 244 3.2 6.4 0.00 0.00 0.00 81 958.5
20260905164347 13 246 3.2 9.7 0.00 0.00 0.00 83 958.4
20260905163847 13 279 4.8 9.7 0.00 0.00 0.00 82 958.4
20260905163346 13 218 4.8 9.7 0.00 0.00 0.00 81 958.5
20260905162846 13 238 3.2 8.0 0.00 0.00 0.00 81 958.5
20260905162346 13 235 3.2 8.0 0.00 0.00 0.00 82 958.3
20260905161846 13 266 3.2 8.0 0.00 0.00 0.00 80 958.2
20260905161346 13 239 4.8 8.0 0.00 0.00 0.00 81 958.0
20260905160846 13 241 4.8 8.0 0.00 0.00 0.00 83 958.0
20260905160346 13 274 4.8 8.0 0.00 0.00 0.00 81 958.1
20260905155846 13 293 4.8 9.7 0.00 0.00 0.00 82 958.0
20260905155346 13 299 4.8 9.7 0.00 0.00 0.00 84 958.0
20260905154846 13 240 4.8 9.7 0.00 0.00 0.00 85 958.0
20260905154346 13 203 4.8 9.7 0.00 0.00 0.00 85 958.0
20260905153846 13 259 6.4 12.9 0.00 0.00 0.00 87 958.0
20260905153346 13 270 6.4 12.9 0.00 0.00 0.00 85 958.0
20260905152846 13 308 6.4 11.3 0.00 0.00 0.00 85 957.9
20260905152346 13 298 6.4 11.3 0.00 0.00 0.00 84 957.8
20260905151846 13 233 6.4 11.3 0.00 0.00 0.00 85 957.8
20260905151346 13 280 6.4 12.9 0.00 0.00 0.00 84 957.8
20260905150845 13 255 6.4 12.9 0.00 0.00 0.00 87 957.8
20260905150345 13 306 4.8 11.3 0.00 0.00 0.00 83 957.7
20260905145845 13 230 4.8 11.3 0.00 0.00 0.00 84 957.7
20260905145345 13 307 4.8 8.0 0.00 0.00 0.00 81 957.7
20260905144845 13 255 4.8 8.0 0.00 0.00 0.00 85 957.7
20260905144345 13 277 4.8 12.9 0.00 0.00 0.00 82 957.6
20260905143845 13 315 4.8 12.9 0.00 0.00 0.00 80 957.7
20260905143345 13 277 4.8 9.7 0.00 0.00 0.00 79 957.5
20260905142845 13 313 4.8 12.9 0.00 0.00 0.00 81 957.4
20260905142345 12 272 4.8 12.9 0.00 0.00 0.00 83 957.4
20260905141845 13 268 6.4 11.3 0.00 0.00 0.00 81 957.2
20260905141345 13 323 6.4 11.3 0.00 0.00 0.00 77 957.5
20260905140845 14 299 4.8 16.1 0.00 0.00 0.00 74 957.2
20260905140345 15 274 3.2 17.7 0.00 0.00 0.00 76 957.1
20260905135844 15 242 4.8 17.7 0.00 0.00 0.00 78 957.1
20260905135344 15 141 3.2 12.9 0.00 0.00 0.00 76 957.1
20260905134844 16 216 3.2 9.7 0.00 0.00 0.00 72 957.1
20260905134344 15 136 3.2 9.7 0.00 0.00 0.00 76 956.9
20260905133844 14 234 3.2 8.0 0.00 0.00 0.00 77 956.9
20260905133344 14 272 3.2 8.0 0.00 0.00 0.00 81 957.0
20260905132844 14 329 3.2 8.0 0.00 0.00 0.00 80 956.8
20260905132345 14 164 3.2 12.9 0.00 0.00 0.00 84 956.9
20260905131844 14 262 3.2 12.9 0.00 0.00 0.00 80 956.9
20260905131344 15 81 3.2 11.3 0.00 0.00 0.00 81 957.0
20260905130844 14 120 4.8 14.5 0.00 0.00 0.00 83 957.0
20260905130344 13 255 6.4 14.5 0.00 0.00 0.00 81 956.9
20260905125844 13 255 4.8 12.9 0.00 0.00 0.00 81 956.8
20260905125344 13 282 6.4 12.9 0.00 0.00 0.00 85 956.9
20260905124844 13 247 6.4 14.5 0.00 0.00 0.00 86 956.8
20260905124344 12 249 6.4 17.7 0.00 0.00 0.00 91 956.9
20260905123843 12 247 6.4 17.7 0.00 0.00 0.00 91 956.8
20260905123343 12 243 6.4 16.1 0.00 0.00 0.00 93 956.8
20260905122843 12 260 6.4 11.3 0.00 0.00 0.00 96 956.6
20260905122343 12 295 4.8 11.3 0.00 0.00 0.00 94 956.6
20260905121843 11 268 4.8 11.3 0.00 0.00 0.00 95 956.6
20260905121343 12 300 4.8 9.7 0.00 0.00 0.00 95 956.6
20260905120843 12 286 4.8 9.7 0.00 0.00 0.00 93 956.5
20260905120343 12 283 4.8 11.3 0.00 0.00 0.00 88 956.5
20260905115843 13 282 4.8 11.3 0.00 0.00 0.00 80 956.5
20260905115343 13 239 3.2 11.3 0.00 0.00 0.00 76 956.6
20260905114843 14 222 3.2 9.7 0.00 0.00 0.00 78 956.5
20260905114343 15 211 1.6 8.0 0.00 0.00 0.00 80 956.6
20260905113843 16 226 3.2 12.9 0.00 0.00 0.00 80 956.4
20260905113313 15 249 3.2 12.9 0.00 0.00 0.00 77 956.3
20260905112813 16 55 3.2 12.9 0.00 0.00 0.00 82 956.5
20260905112313 16 121 3.2 12.9 0.00 0.00 0.00 78 956.2
20260905111812 16 141 3.2 12.9 0.00 0.00 0.00 82 956.3
20260905111312 15 136 3.2 12.9 0.00 0.00 0.00 84 956.3
20260905110812 15 91 3.2 11.3 0.00 0.00 0.00 87 956.1
20260905110312 14 128 3.2 11.3 0.00 0.00 0.00 88 956.1
20260905105812 13 81 1.6 8.0 0.00 0.00 0.00 91 956.0
20260905105312 13 167 1.6 8.0 0.00 0.00 0.00 92 956.0
20260905104812 13 326 3.2 9.7 0.00 0.00 0.00 93 956.0
20260905104312 13 153 1.6 9.7 0.00 0.00 0.00 94 956.0
20260905103812 13 155 1.6 9.7 0.00 0.00 0.00 94 956.0
20260905103312 13 111 1.6 9.7 0.00 0.00 0.00 95 956.0
20260905102812 13 16 1.6 6.4 0.00 0.00 0.00 96 956.0
20260905102312 12 234 1.6 8.0 0.00 0.00 0.00 95 956.0
20260905101812 12 89 1.6 8.0 0.00 0.00 0.00 95 956.0
20260905101312 13 154 1.6 8.0 0.00 0.00 0.00 96 955.9
20260905100812 13 189 1.6 8.0 0.00 0.00 0.00 96 955.9
20260905100312 13 204 1.6 8.0 0.00 0.00 0.00 96 955.8
20260905095812 13 84 1.6 8.0 0.00 0.00 0.00 97 955.6
20260905095311 13 78 1.6 8.0 0.00 0.00 0.00 96 955.6
20260905094811 13 175 1.6 8.0 0.00 0.00 0.00 97 955.6
20260905094311 12 169 1.6 6.4 0.00 0.00 0.00 97 955.5
20260905093811 12 167 0.0 4.8 0.00 0.00 0.00 98 955.6
20260905093311 12 151 1.6 6.4 0.00 0.00 0.00 97 955.4
20260905092811 11 174 3.2 6.4 0.00 0.00 0.00 98 955.4
20260905092311 11 339 3.2 8.0 0.00 0.00 0.00 97 955.2
20260905091811 11 277 3.2 8.0 0.00 0.00 0.00 98 955.3
20260905091311 11 16 3.2 8.0 0.00 0.00 0.00 97 955.3
20260905090811 11 45 3.2 9.7 0.00 0.00 0.00 99 955.4
20260905090311 11 2 3.2 9.7 0.00 0.00 0.00 10 955.3
20260905085811 11 37 3.2 8.0 0.00 0.00 0.00 10 955.1
20260905085311 10 170 3.2 8.0 0.00 0.00 0.00 10 955.1
20260905084811 10 314 4.8 9.7 0.00 0.00 0.00 10 955.0
20260905084311 10 325 4.8 11.3 0.00 0.00 0.00 10 955.0
20260905083810 10 356 4.8 11.3 0.00 0.00 0.00 10 955.0
20260905083310 10 260 3.2 8.0 0.00 0.00 0.00 10 954.9
20260905082810 10 339 3.2 8.0 0.00 0.00 0.00 10 954.9
20260905082310 10 272 3.2 8.0 0.00 0.00 0.00 10 954.9
20260905081810 10 259 3.2 6.4 0.00 0.00 0.00 99 954.8
20260905081310 10 331 1.6 6.4 0.00 0.00 0.00 99 954.8
20260905080810 11 9 1.6 4.8 0.00 0.00 0.00 10 954.8
20260905080310 11 148 1.6 4.8 0.00 0.00 0.00 10 954.8
20260905075810 10 50 1.6 4.8 0.00 0.00 0.00 10 954.8
20260905075310 10 238 1.6 4.8 0.00 0.00 0.00 10 954.8
20260905074810 10 53 1.6 6.4 0.00 0.00 0.00 10 954.7
20260905074310 10 349 1.6 9.7 0.00 0.00 0.00 10 954.7
20260905073810 10 93 3.2 9.7 0.00 0.00 0.00 10 954.7
20260905073310 10 338 3.2 8.0 0.00 0.00 0.00 10 954.6
20260905072809 10 35 3.2 8.0 0.00 0.00 0.00 10 954.5
20260905072309 9 0 3.2 8.0 0.00 0.00 0.00 10 954.4
20260905071809 9 344 4.8 8.0 0.00 0.00 0.00 10 954.4
20260905071309 9 247 4.8 8.0 0.00 0.00 0.00 10 954.3
20260905070809 9 248 4.8 9.7 0.00 0.00 0.00 10 954.2
20260905070309 9 281 4.8 9.7 0.00 0.00 0.00 10 954.2
20260905065809 10 242 1.6 9.7 0.00 0.00 0.00 99 954.2
20260905065309 10 240 1.6 4.8 0.00 0.00 0.00 99 954.3
20260905064809 10 144 1.6 4.8 0.00 0.00 0.00 10 954.3
20260905064309 10 247 1.6 4.8 0.00 0.00 0.00 99 954.1
20260905063809 10 87 0.0 1.6 0.00 0.00 0.00 10 954.2
20260905063309 9 68 0.0 3.2 0.00 0.00 0.00 10 954.1
20260905062809 9 189 1.6 4.8 0.00 0.00 0.00 10 954.1
20260905062309 8 159 1.6 4.8 0.00 0.00 0.00 10 954.1
20260905061809 9 94 0.0 3.2 0.00 0.00 0.00 10 954.0
20260905061309 8 216 0.0 3.2 0.00 0.00 0.00 10 954.0
20260905060809 8 146 1.6 3.2 0.00 0.00 0.00 10 953.9
20260905060308 8 115 1.6 6.4 0.00 0.00 0.00 10 953.9
20260905055808 8 56 3.2 6.4 0.00 0.00 0.00 10 953.9
20260905055308 8 333 3.2 6.4 0.00 0.00 0.00 10 953.8
20260905054808 8 282 3.2 6.4 0.00 0.00 0.00 10 953.8
20260905054308 8 295 3.2 6.4 0.00 0.00 0.00 10 953.8
20260905053808 8 238 1.6 4.8 0.00 0.00 0.00 10 953.7
20260905053308 8 248 1.6 3.2 0.00 0.00 0.00 10 953.6
20260905052738 8 219 1.6 4.8 0.00 0.00 0.00 10 953.8
20260905052238 8 119 1.6 4.8 0.00 0.00 0.00 10 953.7
20260905051738 8 132 1.6 6.4 0.00 0.00 0.00 10 953.7
20260905051238 8 2 1.6 6.4 0.00 0.00 0.00 10 953.6
20260905050738 8 306 1.6 3.2 0.00 0.00 0.00 10 953.6
20260905050238 7 344 1.6 3.2 0.00 0.00 0.00 10 953.5
20260905045738 7 258 1.6 4.8 0.00 0.00 0.00 10 953.6
20260905045238 7 306 1.6 4.8 0.00 0.00 0.00 99 953.5
20260905044738 7 259 1.6 4.8 0.00 0.00 0.00 98 953.5
20260905044237 8 89 1.6 4.8 0.00 0.00 0.00 98 953.4
20260905043737 8 147 1.6 4.8 0.00 0.00 0.00 98 953.4
20260905043237 8 128 1.6 3.2 0.00 0.00 0.00 98 953.4
20260905042737 8 107 0.0 3.2 0.00 0.00 0.00 98 953.4
20260905042237 8 139 0.0 3.2 0.00 0.00 0.00 99 953.5
20260905041737 8 120 0.0 4.8 0.00 0.00 0.00 99 953.5
20260905041237 7 95 1.6 6.4 0.00 0.00 0.00 99 953.5
20260905040737 8 118 1.6 6.4 0.00 0.00 0.00 98 953.5
20260905040237 8 93 0.0 3.2 0.00 0.00 0.00 99 953.5
20260905035737 8 156 0.0 1.6 0.00 0.00 0.00 98 953.4
20260905035237 7 147 0.0 3.2 0.00 0.00 0.00 99 953.4
20260905034737 7 222 0.0 3.2 0.00 0.00 0.00 99 953.4
20260905034237 7 90 1.6 3.2 0.00 0.00 0.00 99 953.4
20260905033737 7 229 1.6 4.8 0.00 0.00 0.00 99 953.3
20260905033236 7 81 1.6 4.8 0.00 0.00 0.00 99 953.2
20260905032736 7 53 1.6 3.2 0.00 0.00 0.00 10 953.2
20260905032236 7 150 1.6 4.8 0.00 0.00 0.00 10 953.1
20260905031736 6 104 1.6 4.8 0.00 0.00 0.00 10 953.2
20260905031236 6 103 1.6 6.4 0.00 0.00 0.00 10 953.1
20260905030736 6 35 3.2 6.4 0.00 0.00 0.00 10 953.2
20260905030236 6 301 4.8 8.0 0.00 0.00 0.00 10 953.1
20260905025736 6 308 4.8 8.0 0.00 0.00 0.00 10 953.1
20260905025236 6 317 3.2 8.0 0.00 0.00 0.00 10 953.1
20260905024736 6 333 1.6 6.4 0.00 0.00 0.00 10 953.1
20260905024236 6 258 1.6 4.8 0.00 0.00 0.00 10 952.9
20260905023736 6 245 1.6 4.8 0.00 0.00 0.00 10 952.9
20260905023236 6 257 1.6 3.2 0.00 0.00 0.00 10 952.9
20260905022736 6 169 1.6 6.4 0.00 0.00 0.00 10 952.8
20260905022236 6 131 4.8 9.7 0.00 0.00 0.00 10 952.8
20260905021735 6 3 4.8 9.7 0.00 0.00 0.00 10 952.8
20260905021235 6 313 6.4 9.7 0.00 0.00 0.00 10 952.8
20260905020735 5 298 6.4 9.7 0.00 0.00 0.00 10 952.8
20260905020235 5 292 6.4 9.7 0.00 0.00 0.00 10 952.8
20260905015735 5 341 4.8 9.7 0.00 0.00 0.00 10 953.0
20260905015235 6 301 4.8 9.7 0.00 0.00 0.00 10 952.9
20260905014735 6 281 6.4 9.7 0.00 0.00 0.00 10 952.8
20260905014235 6 295 6.4 9.7 0.00 0.00 0.00 10 953.0
20260905013235 6 325 3.2 6.4 0.00 0.00 0.00 10 953.0
20260905012735 6 238 1.6 4.8 0.00 0.00 0.00 10 952.9
20260905012235 7 230 0.0 3.2 0.00 0.00 0.00 10 953.0
20260905011735 7 167 0.0 3.2 0.00 0.00 0.00 10 952.9
20260905011235 6 135 1.6 4.8 0.00 0.00 0.00 10 953.0
20260905010734 6 113 1.6 4.8 0.00 0.00 0.00 10 953.0
20260905010234 6 267 0.0 4.8 0.00 0.00 0.00 10 953.0
20260905005734 6 286 0.0 1.6 0.00 0.00 0.00 10 953.1
20260905005234 6 235 0.0 3.2 0.00 0.00 0.00 10 953.1
20260905004734 6 133 0.0 3.2 0.00 0.00 0.00 10 953.1
20260905004234 6 226 0.0 3.2 0.00 0.00 0.00 10 952.9
20260905003734 6 343 1.6 4.8 0.00 0.00 0.00 10 952.9
20260905003234 6 288 3.2 6.4 0.00 0.00 0.00 10 952.8
20260905002734 6 258 4.8 8.0 0.00 0.00 0.00 10 952.8
20260905002234 6 279 6.4 8.0 0.00 0.00 0.00 10 952.8
20260905001734 6 273 6.4 8.0 0.00 0.00 0.00 10 952.8
20260905001234 6 274 6.4 8.0 0.00 0.00 0.00 10 952.7
20260905000734 6 260 6.4 8.0 0.00 0.00 0.00 10 952.8
20260905000233 6 272 6.4 9.7 0.00 0.00 0.00 10 952.8
20260904235733 6 262 6.4 9.7 0.00 0.00 0.00 10 952.8
20260904235233 6 260 6.4 9.7 0.00 0.00 0.00 10 952.8
20260904234733 6 255 6.4 8.0 0.00 0.00 0.00 10 952.9
20260904234233 6 269 6.4 8.0 0.00 0.00 0.00 10 952.9
20260904233733 6 264 6.4 8.0 0.00 0.00 0.00 10 952.9
20260904233233 7 275 4.8 6.4 0.00 0.00 0.00 10 952.8
20260904232733 7 259 4.8 6.4 0.00 0.00 0.00 10 952.9
20260904232233 6 257 4.8 6.4 0.00 0.00 0.00 10 952.9
20260904231733 6 270 3.2 6.4 0.00 0.00 0.00 10 953.0
20260904231233 6 274 1.6 4.8 0.00 0.00 0.00 10 953.0
20260904230733 6 280 1.6 3.2 0.00 0.00 0.00 10 953.0